Showing default

ICEYE-X60, 66753

Orbit data source: Space-Track

ICEYE-X60, 66753 is a payload satellite owned by ICEYE (FI) in SSO that was launched on Fri, 28 Nov 2025 UTC via an FALCON 9 launch vehicle from the Air Force Western Test Range (AFWTR). Payload-class satellites include a variety of spacecraft equipped with specific instruments for various scientific and technological missions. These include communications satellites like Starlink; space stations such as the ISS; scientific satellites like the Hubble; Earth observation satellites from companies like Planet Labs, Umbra, and HawkEye 360; GPS; miniature CubeSats for education and research; and military/defense satellites.

Loading next visibility...
Identifier
66753, 2025-276CR
Orbit
SSO
Country
Flag of FIFI / FIN
Related business
Manufacturer
ICEYE
Mission
Operational Commercial Radar Imaging
Bus & Motor
ICEYE, Unknown motor
Mass
120 kg wet, 120 kg dry
Launch date (UTC)
2025-11-28 (2 months ago)
Launch vehicle
FALCON 9
Launch site
Air Force Western Test Range (AFWTR)
Object type
Payload
Rocket body
Debris
Shape & HBR
Box + 1 Pan, 0.8 m
Radar Cross Section
0.776 m²

Expand to show TLE details & history
Last TLE update: 1 day ago

TLE from 1 day ago
0 ICEYE-X60
1 66753U 25276CR  26034.15899768  .00004297  00000-0  21569-3 0  9995
2 66753  97.4343 109.9941 0004004 115.1611 245.0038 15.17825944 10072
Epoch: 2026-02-03T03:48Z
TLE epoch observation values (Epoch: 2026-02-03T03:48:57.399Z)
Latitude
-0.00008°
Longitude
-80.58899°
Altitude
516.666 km
Speed
7.605 km/s
True Right ascension
07h 19m 58s
True Declination
0° 00' 00"
Sunlit
Object was in full shadow at epoch
Visualization orbit readout
Latitude
Unknown
Longitude
Unknown
Altitude
Unknown
Speed
Unknown
Apparent Right ascension
Unknown
Apparent Declination
Unknown
Sunlit
N/A
Visualization observer readout
Local Sidereal Time
07:05:44
Azimuth
Unknown
Elevation
Unknown
Doppler factor
Unknown
Orbital elements
Apogee altitude
512.14 km
Perigee altitude
506.625 km
Semi-major axis
6,887.519 km
Eccentricity
0.0004
Inclination
97.4343°
RAAN
109.9941°
Arg. of periapsis
115.1611°
True anomaly
244.96222°
Mean anomaly
245.0038°
Eccentric anomaly
244.98301°
Mean motion
3.79707 °/min
Orbital period
94.81 mins
BSTAR
0.00021569
Loading maneuver chart data...
Computing Atmospheric mass density...
Loading historical data...
Loading historical data...
Loading historical data...
Loading historical data...
Loading historical data...
Loading historical data...
Loading historical data...

Documentation

Showing up to 5 results
|